Погода в Урюме

Россия / Республика Татарстан     54°46′21″N   48°45′29″E
В апреле 2022 года жителям России запретили посещать сайт meteo.paraplan.net по решению Генеральной прокуратуры. Аудитория сайта уменьшилась в 10 раз. Владельцы сайта не видят смысла в поддержке погодного сервера в таких условиях. Сайт будет закрыт в октябре.
темп.,
°C
ветер,
м/с
пор.,
м/с
влажн.,
%
обл.,
%
осадки,
мм/ч
давл.,
гПа
погр.,
м
30 сентября, пт
пт3000:00+10всв2296100 0.2 1016162
03:00+10всв2295100 0.3 1018166
06:00+9в239399 0.0 1020196
09:00+10в2389100 0.0 1022306
12:00+11вюв238494 0.0 1023400
15:00+12вюв3381100 0.0 1023450
18:00+11вюв3586100 0.0 1024210
21:00+11юв3687100 0.0 1024231
1 октября, сб
сб100:00+10юв3687100 0.0 1024250
03:00+9юв3587100 0.0 1024206
06:00+9юв368794 0.0 1024216
09:00+11ююв347720 0.0 1024327
12:00+15ююв356671 0.0 1023477
15:00+16ююв456294 0.0 1022685
18:00+13юв3778100 0.0 1021151
21:00+12юв31081100 0.0 1020225
2 октября, вс
вс200:00+12ююв41179100 0.0 1018271
03:00+12ююв51380100 0.0 1017322
06:00+13ююв5138241 0.0 1015349
09:00+15ю7157567 0.0 1014547
12:00+18ю7126999 0.2 1013849
15:00+17ю7127565 0.3 1013760
18:00+15ю51188100 1.4 1013342
21:00+14ю61291100 3.1 1013353
3 октября, пн
пн300:00+14ююв51092100 0.2 1012262
03:00+14ю31094100 0.2 1013307
06:00+14ююв5139173 0.6 1013395
09:00+16ююв6147410 0.6 1013500
12:00+17ююв81562100 0.0 1014655
15:00+18ю81554100 0.0 1015884
18:00+16ююв8175485 0.0 1016703
21:00+16ююв81749100 0.0 1017797
4 октября, вт
вт400:00+15ююв91746100 0.0 1018733
03:00+14ююв8174298 0.0 1019718
06:00+13ююв71640100 0.0 1020646
09:00+14ююв81539100 0.0 1021790
12:00+15ю81437100 0.0 1022904
15:00+14ю61042100 0.0 1023820
18:00+13ю41050100 0.1 1024602
21:00+11зюз2670100 0.3 1025223